| time (UTC) | temp F | wind direction | speed knots | gust knots | rain 1hr in | rain 24hr in | rain mn in | humidity % | barometer mb |
| 20260510190009 | 53 | 33 | 14.8 | 22.6 | 0.00 | 0.00 | 0.00 | 79 | 1016.0 |
| 20260510184506 | 53 | 44 | 13.9 | 21.7 | 0.00 | 0.00 | 0.00 | 79 | 1016.0 |
| 20260510183005 | 53 | 30 | 16.5 | 23.5 | 0.00 | 0.00 | 0.00 | 78 | 1016.1 |
| 20260510181505 | 53 | 42 | 17.4 | 26.9 | 0.00 | 0.00 | 0.00 | 78 | 1016.1 |
| 20260510180108 | 54 | 34 | 15.6 | 24.3 | 0.00 | 0.00 | 0.00 | 78 | 1016.2 |
| 20260510174502 | 54 | 51 | 17.4 | 25.2 | 0.00 | 0.00 | 0.00 | 77 | 1016.0 |
| 20260510173059 | 54 | 33 | 14.8 | 24.3 | 0.00 | 0.00 | 0.00 | 77 | 1016.3 |
| 20260510171611 | 54 | 41 | 16.5 | 26.1 | 0.00 | 0.00 | 0.00 | 76 | 1016.0 |
| 20260510170058 | 54 | 34 | 15.6 | 26.9 | 0.00 | 0.00 | 0.00 | 76 | 1016.1 |
| 20260510164609 | 54 | 42 | 14.8 | 27.8 | 0.00 | 0.00 | 0.00 | 76 | 1016.1 |
| 20260510163138 | 55 | 47 | 16.5 | 26.1 | 0.00 | 0.00 | 0.00 | 77 | 1016.1 |
| 20260510161553 | 55 | 46 | 18.2 | 29.5 | 0.00 | 0.00 | 0.00 | 77 | 1016.2 |
| 20260510160155 | 55 | 27 | 17.4 | 25.2 | 0.00 | 0.00 | 0.00 | 77 | 1016.0 |
| 20260510154554 | 55 | 46 | 14.8 | 27.8 | 0.00 | 0.00 | 0.00 | 77 | 1016.1 |
| 20260510153101 | 55 | 49 | 16.5 | 24.3 | 0.00 | 0.00 | 0.00 | 76 | 1016.3 |
| 20260510151611 | 55 | 56 | 17.4 | 27.8 | 0.00 | 0.00 | 0.00 | 76 | 1016.1 |
| 20260510144648 | 56 | 44 | 16.5 | 25.2 | 0.00 | 0.00 | 0.00 | 76 | 1016.3 |
| 20260510143101 | 56 | 39 | 17.4 | 25.2 | 0.00 | 0.00 | 0.00 | 75 | 1016.4 |
| 20260510141553 | 55 | 39 | 16.5 | 26.9 | 0.00 | 0.00 | 0.00 | 75 | 1016.2 |
| 20260510140048 | 56 | 49 | 13.0 | 23.5 | 0.00 | 0.00 | 0.00 | 76 | 1016.4 |
| 20260510134552 | 56 | 44 | 17.4 | 29.5 | 0.00 | 0.00 | 0.00 | 76 | 1016.3 |
| 20260510133045 | 56 | 84 | 19.1 | 28.7 | 0.00 | 0.00 | 0.00 | 75 | 1016.3 |
| 20260510131549 | 56 | 98 | 17.4 | 26.9 | 0.00 | 0.00 | 0.00 | 76 | 1016.4 |
| 20260510130044 | 56 | 34 | 14.8 | 28.7 | 0.00 | 0.00 | 0.00 | 77 | 1016.4 |
| 20260510124545 | 56 | 40 | 15.6 | 24.3 | 0.00 | 0.00 | 0.00 | 76 | 1016.6 |
| 20260510123040 | 56 | 39 | 16.5 | 26.9 | 0.00 | 0.00 | 0.00 | 76 | 1016.7 |
| 20260510121539 | 56 | 82 | 14.8 | 24.3 | 0.00 | 0.00 | 0.00 | 76 | 1016.8 |
| 20260510120039 | 56 | 37 | 15.6 | 24.3 | 0.00 | 0.00 | 0.00 | 76 | 1016.7 |
| 20260510114544 | 56 | 60 | 17.4 | 26.9 | 0.00 | 0.00 | 0.00 | 76 | 1016.8 |
| 20260510113036 | 56 | 44 | 14.8 | 24.3 | 0.00 | 0.00 | 0.00 | 76 | 1016.8 |
| 20260510111535 | 57 | 39 | 15.6 | 26.1 | 0.00 | 0.00 | 0.00 | 75 | 1016.8 |
| 20260510110032 | 56 | 49 | 16.5 | 23.5 | 0.00 | 0.00 | 0.00 | 75 | 1016.8 |
| 20260510104531 | 56 | 56 | 14.8 | 23.5 | 0.00 | 0.00 | 0.00 | 75 | 1016.9 |
| 20260510103028 | 55 | 67 | 16.5 | 26.9 | 0.00 | 0.00 | 0.00 | 75 | 1017.0 |
| 20260510101525 | 55 | 53 | 14.8 | 24.3 | 0.00 | 0.00 | 0.00 | 75 | 1016.8 |
| 20260510100036 | 54 | 58 | 16.5 | 24.3 | 0.00 | 0.00 | 0.00 | 75 | 1016.8 |
| 20260510094529 | 54 | 70 | 14.8 | 26.9 | 0.00 | 0.00 | 0.00 | 75 | 1016.9 |
| 20260510093022 | 54 | 54 | 14.8 | 24.3 | 0.00 | 0.00 | 0.00 | 76 | 1016.8 |
| 20260510091523 | 54 | 79 | 15.6 | 21.7 | 0.00 | 0.00 | 0.00 | 76 | 1016.7 |
| 20260510090023 | 54 | 88 | 13.9 | 25.2 | 0.00 | 0.00 | 0.00 | 76 | 1016.8 |
| 20260510084518 | 54 | 70 | 17.4 | 26.9 | 0.00 | 0.00 | 0.00 | 77 | 1016.8 |
| 20260510083021 | 54 | 49 | 16.5 | 27.8 | 0.00 | 0.00 | 0.00 | 76 | 1016.8 |
| 20260510081515 | 54 | 61 | 15.6 | 23.5 | 0.00 | 0.00 | 0.00 | 77 | 1016.9 |
| 20260510080024 | 54 | 46 | 15.6 | 26.9 | 0.00 | 0.00 | 0.00 | 78 | 1017.0 |
| 20260510074510 | 54 | 100 | 14.8 | 22.6 | 0.00 | 0.00 | 0.00 | 79 | 1016.8 |
| 20260510073005 | 54 | 76 | 13.9 | 20.9 | 0.00 | 0.00 | 0.00 | 81 | 1016.7 |
| 20260510071503 | 54 | 51 | 13.0 | 22.6 | 0.00 | 0.00 | 0.00 | 82 | 1016.8 |
| 20260510064556 | 53 | 64 | 13.0 | 24.3 | 0.00 | 0.00 | 0.00 | 83 | 1016.5 |
| 20260510063054 | 53 | 51 | 14.8 | 24.3 | 0.00 | 0.00 | 0.00 | 83 | 1016.4 |
| 20260510061555 | 53 | 37 | 14.8 | 23.5 | 0.00 | 0.00 | 0.00 | 84 | 1016.3 |
| 20260510060053 | 53 | 63 | 15.6 | 23.5 | 0.00 | 0.00 | 0.00 | 85 | 1016.1 |
| 20260510054549 | 53 | 56 | 12.2 | 20.9 | 0.00 | 0.00 | 0.00 | 85 | 1016.0 |
| 20260510053045 | 53 | 40 | 13.9 | 20.9 | 0.00 | 0.00 | 0.00 | 85 | 1015.7 |
| 20260510051547 | 53 | 37 | 13.9 | 21.7 | 0.00 | 0.00 | 0.00 | 86 | 1015.7 |
| 20260510050141 | 53 | 47 | 13.9 | 23.5 | 0.00 | 0.00 | 0.00 | 86 | 1015.7 |
| 20260510044538 | 53 | 65 | 13.9 | 24.3 | 0.00 | 0.00 | 0.00 | 87 | 1015.7 |
| 20260510043041 | 53 | 49 | 14.8 | 24.3 | 0.00 | 0.00 | 0.00 | 87 | 1015.6 |
| 20260510041536 | 53 | 41 | 14.8 | 23.5 | 0.00 | 0.00 | 0.00 | 87 | 1015.8 |
| 20260510040035 | 53 | 61 | 13.9 | 22.6 | 0.00 | 0.00 | 0.00 | 87 | 1016.0 |
| 20260510034541 | 53 | 46 | 14.8 | 26.9 | 0.00 | 0.00 | 0.00 | 87 | 1016.0 |
| 20260510033033 | 53 | 58 | 17.4 | 25.2 | 0.00 | 0.00 | 0.00 | 87 | 1016.0 |
| 20260510031531 | 53 | 44 | 16.5 | 28.7 | 0.00 | 0.00 | 0.00 | 87 | 1016.1 |
| 20260510030030 | 53 | 49 | 15.6 | 26.9 | 0.00 | 0.00 | 0.00 | 87 | 1016.1 |
| 20260510024529 | 53 | 51 | 16.5 | 26.1 | 0.00 | 0.00 | 0.00 | 87 | 1016.3 |
| 20260510023027 | 53 | 51 | 13.9 | 26.1 | 0.00 | 0.00 | 0.00 | 87 | 1016.3 |
| 20260510021531 | 53 | 51 | 14.8 | 22.6 | 0.00 | 0.00 | 0.00 | 87 | 1016.4 |
| 20260510020028 | 53 | 40 | 15.6 | 26.9 | 0.00 | 0.00 | 0.00 | 87 | 1016.3 |
| 20260510014526 | 53 | 46 | 19.1 | 29.5 | 0.00 | 0.00 | 0.00 | 86 | 1016.3 |
| 20260510013025 | 53 | 27 | 18.2 | 26.9 | 0.00 | 0.00 | 0.00 | 86 | 1016.5 |
| 20260510011535 | 53 | 42 | 17.4 | 27.8 | 0.00 | 0.00 | 0.00 | 86 | 1016.7 |
| 20260510010020 | 53 | 37 | 17.4 | 25.2 | 0.00 | 0.00 | 0.00 | 86 | 1016.7 |
| 20260510004518 | 53 | 39 | 14.8 | 23.5 | 0.00 | 0.00 | 0.00 | 86 | 1016.8 |
| 20260510003023 | 53 | 44 | 16.5 | 26.1 | 0.00 | 0.00 | 0.00 | 86 | 1016.9 |
| 20260510001516 | 53 | 27 | 17.4 | 26.1 | 0.00 | 0.00 | 0.00 | 86 | 1017.0 |
| 20260510000017 | 53 | 46 | 16.5 | 26.1 | 0.00 | 0.00 | 0.00 | 86 | 1017.2 |
| 20260509234513 | 53 | 47 | 14.8 | 26.1 | 0.00 | 0.00 | 0.00 | 86 | 1017.2 |
| 20260509233013 | 53 | 39 | 13.9 | 23.5 | 0.00 | 0.00 | 0.00 | 86 | 1017.4 |
| 20260509231512 | 53 | 44 | 14.8 | 24.3 | 0.00 | 0.00 | 0.00 | 86 | 1017.4 |
| 20260509230007 | 53 | 46 | 14.8 | 23.5 | 0.00 | 0.00 | 0.00 | 86 | 1017.4 |
| 20260509224505 | 53 | 51 | 13.9 | 22.6 | 0.00 | 0.00 | 0.00 | 86 | 1017.4 |
| 20260509223107 | 53 | 53 | 13.9 | 23.5 | 0.00 | 0.00 | 0.00 | 86 | 1017.4 |
| 20260509221559 | 53 | 32 | 15.6 | 23.5 | 0.00 | 0.00 | 0.00 | 86 | 1017.4 |
| 20260509220100 | 53 | 68 | 13.9 | 24.3 | 0.00 | 0.00 | 0.00 | 86 | 1017.5 |
| 20260509214557 | 53 | 60 | 11.3 | 21.7 | 0.00 | 0.00 | 0.00 | 86 | 1017.5 |
| 20260509213153 | 53 | 52 | 13.0 | 23.5 | 0.00 | 0.00 | 0.00 | 86 | 1017.7 |
| 20260509211551 | 54 | 63 | 12.2 | 18.2 | 0.00 | 0.00 | 0.00 | 86 | 1017.9 |
| 20260509210053 | 54 | 58 | 11.3 | 18.2 | 0.00 | 0.00 | 0.00 | 86 | 1017.8 |
| 20260509204552 | 54 | 33 | 13.0 | 20.0 | 0.00 | 0.00 | 0.00 | 86 | 1017.7 |
| 20260509203044 | 54 | 44 | 11.3 | 21.7 | 0.00 | 0.00 | 0.00 | 86 | 1017.5 |
| 20260509201540 | 54 | 47 | 11.3 | 20.9 | 0.00 | 0.00 | 0.00 | 86 | 1017.4 |
| 20260509200052 | 54 | 25 | 10.4 | 19.1 | 0.00 | 0.00 | 0.00 | 86 | 1017.5 |
| 20260509194538 | 54 | 96 | 10.4 | 18.2 | 0.00 | 0.00 | 0.00 | 86 | 1017.5 |
| 20260509193034 | 54 | 58 | 11.3 | 20.0 | 0.00 | 0.00 | 0.00 | 86 | 1017.4 |
| 20260509191533 | 54 | 69 | 11.3 | 19.1 | 0.00 | 0.00 | 0.00 | 85 | 1017.4 |